Skip Page Navigation
NASA JPL Caltech
NASA Logo - Jet Propulsion Laboratory + View the NASA Portal
+ Near-Earth Object (NEO) Program
Search JPL
JPL Home Earth Solar System Stars & Galaxies Technology
JPL Solar System Dynamics
BODIES ORBITS EPHEMERIDES TOOLS PHYSICAL DATA DISCOVERY FAQ SITE MAP
JPL Small-Body Database Browser
Search: [ help ]  
5725 Nordlingen (1988 BK2)
Classification: Main-belt Asteroid          SPK-ID: 2005725
Ephemeris | Orbit Diagram | Orbital Elements | Physical Parameters | Discovery Circumstances | Close-Approach Data ]

[ show orbit diagram ]
Orbital Elements at Epoch 2457000.5 (2014-Dec-09.0) TDB
Reference: JPL 12 (heliocentric ecliptic J2000)
 Element Value Uncertainty (1-sigma)   Units 
e .0567956330887837 6.5744e-08  
a 2.681126917461246 2.5899e-08 AU
q 2.528850616792655 1.8588e-07 AU
i 22.54446209141772 1.2873e-05 deg
node 55.28270364146177 1.6629e-05 deg
peri 76.56030950166095 0.00013498 deg
M 26.98108091474492 0.00013127 deg
tp 2456880.320240742607
(2014-Aug-10.82024074)
0.00058419 JED
period 1603.520387836566
4.39
2.3234e-05
6.361e-08
d
yr
n .2245060323091394 3.253e-09 deg/d
Q 2.833403218129836 2.737e-08 AU
  Orbit Determination Parameters
   # obs. used (total)      745  
   data-arc span      22621 days (61.93 yr)  
   first obs. used      1953-02-15  
   last obs. used      2015-01-22  
   planetary ephem.      DE431  
   SB-pert. ephem.      SB431-BIG16  
   condition code      0  
   fit RMS      .47143  
   data source      ORB  
   producer      Otto Matic  
   solution date      2015-Mar-09 14:00:18  

Additional Information
 Earth MOID = 1.61703 AU 
 T_jup = 3.265 
[ show covariance matrix ]

Ephemeris | Orbit Diagram | Orbital Elements | Physical Parameters | Discovery Circumstances | Close-Approach Data ]

Physical Parameter Table
Parameter Symbol Value Units Sigma Reference Notes
absolute magnitude H 12.7 mag n/a MPO279575  

5725 Nordlingen (1988 BK2)          Discovered 1988-Jan-23 by Shoemaker, C. S. at Palomar
Reference: DISCOVERY.DBLast Updated: 2003-08-29

[ show close-approach data ]
Alternate Designations
 1988 BK2 = 1991 VM3 
Ephemeris | Orbit Diagram | Orbital Elements | Physical Parameters | Discovery Circumstances | Close-Approach Data ]
ABOUT SSD CREDITS/AWARDS PRIVACY/COPYRIGHT GLOSSARY LINKS
FirstGov 2015-Apr-02 04:24 UT
(server date/time)  
NASA Home Page
Site Manager:   Ryan S. Park
Webmaster  Alan B. Chamberlin